This demonstration page uses our WeatherBlox Daily Observations layout. Learn more.

Left ArrowRight Arrow

39.51506, -84.39828

Hourly Observations for November 22, 2020

Temp ( °F °C ) Dew Point ( °F °C ) Humidity (%) Winds ( mph kmh ) Pressure ( in mb ) Visibility ( mi km ) Precip ( " mm )
12:15 am 00:15 Cloudy 46 7.6 43 6 90 90 ENE 8 13 30.35 1028 10 16.0934 0 0
12:35 am 00:35 Cloudy with Light Rain 45 7.4 43 6.1 92 92 E 12 19 30.34 1027 7 11.26538 0 0
12:55 am 00:55 Cloudy with Light Rain 45 7 44 6.4 96 96 E 14 22 30.33 1027 3.5 5.63269 0.02 0.508
1:15 am 01:15 Cloudy with Light Rain 44 6.8 44 6.4 97 97 ENE 12 19 30.32 1027 3.5 5.63269 0 0
1:35 am 01:35 Cloudy with Light Rain 44 6.7 44 6.4 98 98 ENE 10 17 30.31 1026 5 8.0467 0.01 0.254
1:55 am 01:55 Cloudy with Light Rain 44 6.6 43 6.3 98 98 E 10 17 30.3 1026 7 11.26538 0.01 0.254
2:15 am 02:15 Cloudy with Light Rain 44 6.6 43 6.3 98 98 E 8 13 30.29 1026 7 11.26538 0 0
2:35 am 02:35 Cloudy with Light Rain 44 6.7 43 6.1 96 96 E 10 17 30.28 1025 7 11.26538 0 0
2:55 am 02:55 Cloudy with Light Rain 44 6.7 43 6.1 96 96 E 8 13 30.28 1025 7 11.26538 0 0
3:15 am 03:15 Cloudy with Drizzle 44 6.6 43 6 96 96 E 7 11 30.27 1025 10 16.0934 0 0
3:35 am 03:35 Cloudy 44 6.6 43 5.9 95 95 E 10 17 30.27 1025 10 16.0934 0 0
3:55 am 03:55 Cloudy 44 6.6 43 5.9 95 95 E 10 17 30.26 1025 10 16.0934 0 0
4:15 am 04:15 Cloudy 44 6.5 42 5.8 95 95 E 10 17 30.25 1024 10 16.0934 0 0
4:35 am 04:35 Cloudy 44 6.4 42 5.7 95 95 E 9 15 30.24 1024 10 16.0934 0 0
4:55 am 04:55 Cloudy 43 6.3 42 5.5 95 95 E 12 19 30.23 1024 10 16.0934 0 0
5:15 am 05:15 Cloudy 43 6.2 42 5.4 95 95 E 10 17 30.23 1024 10 16.0934 0 0
5:35 am 05:35 Cloudy 43 6.1 42 5.3 95 95 E 12 19 30.23 1024 10 16.0934 0 0
5:55 am 05:55 Cloudy 43 6 41 5.1 94 94 E 12 19 30.23 1024 10 16.0934 0 0
6:15 am 06:15 Cloudy 42 5.8 41 4.9 94 94 E 12 19 30.23 1024 10 16.0934 0 0
6:35 am 06:35 Cloudy with Drizzle 42 5.7 41 4.8 94 94 E 12 19 30.23 1024 10 16.0934 0 0
6:55 am 06:55 Cloudy 42 5.4 40 4.6 95 95 E 16 26 30.22 1023 10 16.0934 0 0
7:15 am 07:15 Cloudy 42 5.3 40 4.5 95 95 E 15 24 30.21 1023 10 16.0934 0 0
7:35 am 07:35 Cloudy with Mist and Fog 41 5 40 4.5 97 97 E 10 17 30.21 1023 5 8.0467 0 0
7:55 am 07:55 Cloudy with Mist and Fog 41 4.9 40 4.5 97 97 E 15 24 30.2 1023 4 6.43736 0 0
8:15 am 08:15 Cloudy with Mist and Fog 41 4.8 40 4.5 98 98 E 12 19 30.18 1022 4 6.43736 0 0
8:35 am 08:35 Cloudy with Light Rain 41 4.8 40 4.5 98 98 ESE 10 17 30.18 1022 4 6.43736 0 0
8:55 am 08:55 Cloudy with Light Rain 41 4.8 40 4.5 98 98 ESE 10 17 30.17 1022 4 6.43736 0.01 0.254
9:15 am 09:15 Cloudy with Light Rain 40 4.7 40 4.5 99 99 ESE 10 17 30.16 1021 3.5 5.63269 0.01 0.254
9:35 am 09:35 Cloudy with Light Rain 41 4.8 40 4.6 99 99 E 8 13 30.15 1021 2.5 4.02335 0.04 1.016
9:55 am 09:55 Cloudy with Light Rain 41 4.8 40 4.6 99 99 E 8 13 30.14 1021 3 4.82802 0.08 2.032
10:15 am 10:15 Cloudy with Rain 41 4.8 40 4.7 99 99 E 9 15 30.11 1020 3 4.82802 0.03 0.762
10:35 am 10:35 Cloudy with Light Rain 41 5 41 4.8 99 99 E 7 11 30.1 1019 3.5 5.63269 0.05 1.27
10:55 am 10:55 Cloudy with Rain 41 5.2 41 5.1 99 99 ESE 6 9 30.08 1019 3 4.82802 0.06 1.524
11:15 am 11:15 Cloudy with Light Rain 42 5.3 42 5.3 100 100 E 3 6 30.06 1018 1.75 2.816345 0.02 0.508
11:35 am 11:35 Cloudy with Rain 43 6 41 5 93 93 Calm 30.05 1018 1.5 2.41401 0.05 1.27
11:55 am 11:55 Cloudy with Light Rain 43 6 N/A N/A Calm 30.04 1017 1.75 2.816345 0.06 1.524
12:15 pm 12:15 Partly Cloudy with Light Rain 43 6 N/A N/A Calm 30.03 1017 3 4.82802 0 0
12:35 pm 12:35 Cloudy with Light Rain 43 6 N/A N/A Calm 30.02 1017 5 8.0467 0 0
12:55 pm 12:55 Cloudy with Drizzle 43 6 N/A N/A Calm 30 1016 5 8.0467 0 0
1:15 pm 13:15 Cloudy with Drizzle 43 6 N/A N/A Calm 30 1016 2.5 4.02335 0 0
1:35 pm 13:35 Cloudy with Light Rain 45 7 N/A N/A NNE 5 7 30 1016 1.5 2.41401 0 0
1:55 pm 13:55 Cloudy with Drizzle 45 7 N/A N/A NNE 5 7 30 1016 1.25 2.011675 0.01 0.254
2:15 pm 14:15 Cloudy with Light Rain 43 6 N/A N/A NNE 5 7 30 1016 4 6.43736 0.01 0.254
2:35 pm 14:35 Cloudy with Drizzle 43 6.3 43 6.3 100 100 NNE 5 7 30 1016 10 16.0934 0.02 0.508
2:55 pm 14:55 Cloudy 43 6.3 43 6 98 98 NNE 3 6 30.01 1016 10 16.0934 0.02 0.508
3:15 pm 15:15 Cloudy 43 6 42 5.6 97 97 NNE 3 6 30.02 1017 10 16.0934 0 0
3:35 pm 15:35 Cloudy 42 5.4 41 4.9 97 97 N 7 11 30.04 1017 10 16.0934 0 0
3:55 pm 15:55 Cloudy 41 5.2 41 4.8 97 97 N 6 9 30.05 1018 7 11.26538 0 0
4:15 pm 16:15 Cloudy 41 4.9 40 4.4 97 97 N 6 9 30.07 1018 10 16.0934 0 0
4:35 pm 16:35 Cloudy 40 4.7 39 4.1 96 96 N 5 7 30.08 1019 10 16.0934 0 0
4:55 pm 16:55 Cloudy 40 4.6 39 4 96 96 N 6 9 30.09 1019 10 16.0934 0 0
5:15 pm 17:15 Cloudy 40 4.6 39 4 96 96 NNW 13 20 30.1 1019 10 16.0934 0 0
5:35 pm 17:35 Cloudy 40 4.6 39 3.8 95 95 N 8 13 30.11 1020 10 16.0934 0 0
5:55 pm 17:55 Cloudy 40 4.5 38 3.6 94 94 N 14 22 30.12 1020 10 16.0934 0 0
6:15 pm 18:15 Cloudy 39 4.1 38 3.2 94 94 N 7 11 30.14 1021 10 16.0934 0 0
6:35 pm 18:35 Cloudy 39 3.9 37 2.9 93 93 N 9 15 30.16 1021 10 16.0934 0 0
6:55 pm 18:55 Cloudy 39 3.7 37 2.8 94 94 N 15 24 30.18 1022 10 16.0934 0 0
7:10 pm 19:10 Cloudy 38 3.5 37 2.5 93 93 N 9 15 30.18 1022 10 16.0934 0 0
7:35 pm 19:35 Cloudy 38 3.2 36 2.2 93 93 N 9 15 30.19 1022 10 16.0934 0 0
7:55 pm 19:55 Cloudy with Mist and Fog 37 3 36 2.4 96 96 N 5 7 30.2 1023 5 8.0467 0 0
8:15 pm 20:15 Cloudy with Mist and Fog 38 3.1 37 2.7 97 97 N 8 13 30.21 1023 5 8.0467 0 0
8:35 pm 20:35 Cloudy 38 3.3 36 2.3 93 93 N 8 13 30.22 1023 10 16.0934 0 0
8:55 pm 20:55 Cloudy 38 3.3 37 2.5 95 95 N 10 17 30.22 1023 10 16.0934 0 0
9:15 pm 21:15 Cloudy 38 3.3 36 2.4 94 94 N 8 13 30.23 1024 10 16.0934 0 0
9:35 pm 21:35 Cloudy 38 3.4 36 2.2 92 92 NNW 7 11 30.24 1024 10 16.0934 0 0
9:55 pm 21:55 Cloudy 38 3.4 36 2.1 91 91 NNW 7 11 30.25 1024 10 16.0934 0 0
10:15 pm 22:15 Cloudy 38 3.5 36 2.2 91 91 NW 8 13 30.26 1025 10 16.0934 0 0
10:35 pm 22:35 Cloudy 38 3.4 36 2.3 93 93 NW 7 11 30.26 1025 10 16.0934 0 0
10:55 pm 22:55 Cloudy 38 3.5 36 2.3 92 92 NW 5 7 30.26 1025 10 16.0934 0 0
11:15 pm 23:15 Cloudy 38 3.6 36 2.4 92 92 NW 3 6 30.27 1025 10 16.0934 0 0
11:35 pm 23:35 Cloudy 38 3.6 36 2.3 91 91 WNW 3 6 30.27 1025 10 16.0934 0 0
11:55 pm 23:55 Cloudy 38 3.3 36 2.2 93 93 Calm 30.27 1025 10 16.0934 0 0

Powered by AerisWeather